This is the latest recevied weather packets stored in our database for station/object N1YZ. If no packets are shown the sender has not sent any weather packets the latest 10 day(s).
| Time | Temp. | Humidity | Pressure | Rain* | Wind** | Luminosity | Snow |
|---|---|---|---|---|---|---|---|
| 1778001698 | 23.33° C | 60% | 1034.3 hPa | 0 mm | - | 532 W/m² | - |
| 1778001398 | 23.33° C | 58% | 1034.3 hPa | 0 mm | - | 592 W/m² | - |
| 1778001096 | 22.78° C | 66% | 1034.1 hPa | 0 mm | - | 675 W/m² | - |
| 1778000793 | 22.78° C | 63% | 1034.3 hPa | 0 mm | - | 730 W/m² | - |
| 1778000489 | 22.22° C | 60% | 1034.3 hPa | 0 mm | - | 484 W/m² | - |
| 1778000184 | 21.67° C | 67% | 1034.5 hPa | 0 mm | - | 651 W/m² | - |
| 1777999880 | 22.22° C | 66% | 1034.6 hPa | 0 mm | - | 649 W/m² | - |
| 1777999575 | 22.22° C | 65% | 1034.5 hPa | 0 mm | - | 633 W/m² | - |
| 1777999274 | 22.22° C | 64% | 1034.3 hPa | 0 mm | - | 589 W/m² | - |
| 1777998972 | 22.22° C | 66% | 1034.5 hPa | 0 mm | - | 660 W/m² | - |
| 1777998669 | 22.22° C | 65% | 1034.8 hPa | 0 mm | - | 646 W/m² | - |
| 1777998366 | 22.22° C | 63% | 1034.4 hPa | 0 mm | - | 684 W/m² | - |
| 1777998064 | 22.22° C | 64% | 1034.7 hPa | 0 mm | - | 712 W/m² | - |
| 1777997761 | 21.67° C | 66% | 1034.5 hPa | 0 mm | - | 650 W/m² | - |
| 1777997458 | 21.11° C | 68% | 1034.4 hPa | 0 mm | - | 416 W/m² | - |
| 1777997156 | 21.11° C | 68% | 1034.6 hPa | 0 mm | - | 310 W/m² | - |
| 1777996853 | 21.11° C | 68% | 1034.5 hPa | 0 mm | - | 78 W/m² | - |
| 1777996549 | 21.11° C | 68% | 1034.5 hPa | 0 mm | - | 95 W/m² | - |
| 1777996245 | 21.11° C | 69% | 1034.2 hPa | 0 mm | - | 133 W/m² | - |
| 1777995942 | 21.11° C | 68% | 1034.6 hPa | 0 mm | - | 95 W/m² | - |
| 1777995638 | 20.56° C | 70% | 1034.6 hPa | 0 mm | - | 89 W/m² | - |
| 1777995336 | 20.56° C | 68% | 1034.4 hPa | 0 mm | - | 76 W/m² | - |
| 1777995033 | 20.56° C | 69% | 1034.8 hPa | 0 mm | - | 74 W/m² | - |
| 1777994729 | 21.11° C | 70% | 1034.8 hPa | 0 mm | - | 296 W/m² | - |
| 1777994425 | 21.11° C | 69% | 1034.6 hPa | 0 mm | - | 243 W/m² | - |
* Rain latest hour (hover to see other rain measurements)
** Current wind speed in m/s (hover to see current wind gust speed)